Time,TemperatureF,DewpointF,PressureIn,WindDirection,WindDirectionDegrees,WindSpeedMPH,WindSpeedGustMPH,Humidity,HourlyPrecipIn,Conditions,Clouds,dailyrainin,SoftwareType,DateUTC
2013-04-20 00:01:00,49.6,27.4,30.18,ESE,112,0.0,0.0,42,0.00,,,0.00,WUHU21623XXSP,2013-04-20 07:01:00,
2013-04-20 00:12:00,48.9,26.2,30.18,SSE,157,0.0,0.0,41,0.00,,,0.00,WUHU21623XXSP,2013-04-20 07:12:00,
2013-04-20 00:21:00,48.4,26.2,30.19,South,180,0.0,0.0,42,0.00,,,0.00,WUHU21623XXSP,2013-04-20 07:21:00,
2013-04-20 00:33:00,47.5,26.0,30.19,NNW,337,5.1,5.1,43,0.00,,,0.00,WUHU21623XXSP,2013-04-20 07:33:00,
2013-04-20 00:50:00,46.6,26.2,30.19,WNW,292,3.4,3.4,45,0.00,,,0.00,WUHU21623XXSP,2013-04-20 07:50:00,
2013-04-20 00:57:00,46.8,26.9,30.19,North,0,3.4,3.4,46,0.00,,,0.00,WUHU21623XXSP,2013-04-20 07:57:00,
2013-04-20 01:02:00,46.6,27.3,30.19,NW,315,6.5,6.5,47,0.00,,,0.00,WUHU21623XXSP,2013-04-20 08:02:00,
2013-04-20 01:18:00,46.8,27.5,30.19,WNW,292,3.1,3.1,47,0.00,,,0.00,WUHU21623XXSP,2013-04-20 08:18:00,
2013-04-20 01:57:00,46.9,27.1,30.19,North,0,6.3,6.3,46,0.00,,,0.00,WUHU21623XXSP,2013-04-20 08:57:00,
2013-04-20 02:02:00,46.9,27.1,30.19,North,0,6.3,6.3,46,0.00,,,0.00,WUHU21623XXSP,2013-04-20 09:02:00,
2013-04-20 02:29:00,46.0,25.7,30.19,NW,315,4.9,4.9,45,0.00,,,0.00,WUHU21623XXSP,2013-04-20 09:29:00,
2013-04-20 02:57:00,45.5,25.3,30.19,SSW,202,0.0,0.0,45,0.00,,,0.00,WUHU21623XXSP,2013-04-20 09:57:00,
2013-04-20 03:02:00,45.5,25.3,30.19,SSW,202,0.0,0.0,45,0.00,,,0.00,WUHU21623XXSP,2013-04-20 10:02:00,
2013-04-20 03:29:00,44.2,24.1,30.20,WNW,292,0.0,0.0,45,0.00,,,0.00,WUHU21623XXSP,2013-04-20 10:29:00,
2013-04-20 03:42:00,43.5,23.5,30.20,SSE,157,0.0,0.0,45,0.00,,,0.00,WUHU21623XXSP,2013-04-20 10:42:00,
2013-04-20 03:47:00,43.0,23.1,30.20,SE,135,0.0,0.0,45,0.00,,,0.00,WUHU21623XXSP,2013-04-20 10:47:00,
2013-04-20 03:57:00,42.4,22.5,30.20,SE,135,0.0,0.0,45,0.00,,,0.00,WUHU21623XXSP,2013-04-20 10:57:00,
2013-04-20 04:02:00,42.4,22.5,30.20,SE,135,0.0,0.0,45,0.00,,,0.00,WUHU21623XXSP,2013-04-20 11:02:00,
2013-04-20 04:46:00,39.4,20.7,30.20,SSE,157,0.0,0.0,47,0.00,,,0.00,WUHU21623XXSP,2013-04-20 11:46:00,
2013-04-20 04:55:00,38.5,20.0,30.20,North,0,0.0,0.0,47,0.00,,,0.00,WUHU21623XXSP,2013-04-20 11:55:00,
2013-04-20 05:00:00,38.5,19.9,30.20,North,0,0.0,0.0,47,0.00,,,0.00,WUHU21623XXSP,2013-04-20 12:00:00,
2013-04-20 05:05:00,38.5,19.9,30.20,North,0,0.0,0.0,47,0.00,,,0.00,WUHU21623XXSP,2013-04-20 12:05:00,
2013-04-20 05:35:00,36.0,18.7,30.20,NE,45,0.0,0.0,49,0.00,,,0.00,WUHU21623XXSP,2013-04-20 12:35:00,
2013-04-20 05:57:00,34.9,18.1,30.20,SSW,202,0.0,0.0,50,0.00,,,0.00,WUHU21623XXSP,2013-04-20 12:57:00,
2013-04-20 06:02:00,34.9,18.6,30.20,West,270,0.0,0.0,51,0.00,,,0.00,WUHU21623XXSP,2013-04-20 13:02:00,
2013-04-20 06:31:00,33.6,18.2,30.21,SSE,157,0.0,0.0,53,0.00,,,0.00,WUHU21623XXSP,2013-04-20 13:31:00,
2013-04-20 06:39:00,33.4,18.0,30.21,SSE,157,0.0,0.0,53,0.00,,,0.00,WUHU21623XXSP,2013-04-20 13:39:00,
2013-04-20 06:52:00,33.4,18.5,30.21,NW,315,0.0,0.0,54,0.00,,,0.00,WUHU21623XXSP,2013-04-20 13:52:00,
2013-04-20 06:57:00,33.6,19.1,30.21,NW,315,0.0,0.0,55,0.00,,,0.00,WUHU21623XXSP,2013-04-20 13:57:00,
2013-04-20 07:02:00,33.6,19.1,30.21,NW,315,0.0,0.0,55,0.00,,,0.00,WUHU21623XXSP,2013-04-20 14:02:00,
2013-04-20 07:07:00,34.5,20.4,30.21,North,0,0.0,0.0,56,0.00,,,0.00,WUHU21623XXSP,2013-04-20 14:07:00,
2013-04-20 07:12:00,35.1,20.9,30.22,WNW,292,0.0,0.0,56,0.00,,,0.00,WUHU21623XXSP,2013-04-20 14:12:00,
2013-04-20 07:17:00,35.4,21.3,30.22,WNW,292,0.0,0.0,56,0.00,,,0.00,WUHU21623XXSP,2013-04-20 14:17:00,
2013-04-20 07:24:00,36.3,22.5,30.22,South,180,0.0,0.0,57,0.00,,,0.00,WUHU21623XXSP,2013-04-20 14:24:00,
2013-04-20 07:31:00,36.7,22.9,30.22,West,270,0.0,0.0,57,0.00,,,0.00,WUHU21623XXSP,2013-04-20 14:31:00,
2013-04-20 07:36:00,36.9,23.0,30.22,West,270,0.0,0.0,57,0.00,,,0.00,WUHU21623XXSP,2013-04-20 14:36:00,
2013-04-20 07:48:00,38.1,24.2,30.22,WNW,292,0.0,0.0,57,0.00,,,0.00,WUHU21623XXSP,2013-04-20 14:48:00,
2013-04-20 07:53:00,38.3,24.2,30.22,WNW,292,0.0,0.0,57,0.00,,,0.00,WUHU21623XXSP,2013-04-20 14:53:00,
2013-04-20 07:58:00,38.8,24.6,30.22,NNW,337,0.0,0.0,57,0.00,,,0.00,WUHU21623XXSP,2013-04-20 14:58:00,
2013-04-20 08:03:00,39.0,25.0,30.22,West,270,0.0,0.0,57,0.00,,,0.00,WUHU21623XXSP,2013-04-20 15:03:00,
2013-04-20 08:08:00,39.7,25.0,30.22,WNW,292,0.0,0.0,56,0.00,,,0.00,WUHU21623XXSP,2013-04-20 15:08:00,
2013-04-20 08:13:00,40.1,25.6,30.22,West,270,0.0,0.0,56,0.00,,,0.00,WUHU21623XXSP,2013-04-20 15:13:00,
2013-04-20 08:18:00,40.6,26.5,30.22,WNW,292,0.0,0.0,57,0.00,,,0.00,WUHU21623XXSP,2013-04-20 15:18:00,
2013-04-20 08:23:00,41.0,26.9,30.22,WNW,292,0.0,0.0,57,0.00,,,0.00,WUHU21623XXSP,2013-04-20 15:23:00,
2013-04-20 08:28:00,41.7,27.5,30.22,NW,315,0.0,0.0,57,0.00,,,0.00,WUHU21623XXSP,2013-04-20 15:28:00,
2013-04-20 08:37:00,42.8,28.5,30.22,NNW,337,0.0,0.0,57,0.00,,,0.00,WUHU21623XXSP,2013-04-20 15:37:00,
2013-04-20 08:46:00,44.2,29.0,30.22,WNW,292,2.0,2.0,55,0.00,,,0.00,WUHU21623XXSP,2013-04-20 15:46:00,
2013-04-20 08:56:00,45.5,29.3,30.22,NW,315,1.3,1.3,53,0.00,,,0.00,WUHU21623XXSP,2013-04-20 15:56:00,
2013-04-20 09:05:00,46.2,29.5,30.22,North,0,2.0,2.0,52,0.00,,,0.00,WUHU21623XXSP,2013-04-20 16:05:00,
2013-04-20 09:13:00,47.1,29.4,30.22,NW,315,0.0,2.0,50,0.00,,,0.00,WUHU21623XXSP,2013-04-20 16:13:00,
2013-04-20 09:20:00,48.2,29.7,30.22,NW,315,2.9,2.9,49,0.00,,,0.00,WUHU21623XXSP,2013-04-20 16:20:00,
2013-04-20 09:25:00,48.6,30.2,30.22,West,270,0.0,2.9,49,0.00,,,0.00,WUHU21623XXSP,2013-04-20 16:25:00,
2013-04-20 09:39:00,50.2,30.7,30.22,North,0,3.4,3.4,47,0.00,,,0.00,WUHU21623XXSP,2013-04-20 16:39:00,
2013-04-20 09:48:00,50.9,30.8,30.22,SW,225,0.0,3.4,46,0.00,,,0.00,WUHU21623XXSP,2013-04-20 16:48:00,
2013-04-20 09:54:00,51.4,30.7,30.22,WNW,292,1.6,1.6,45,0.00,,,0.00,WUHU21623XXSP,2013-04-20 16:54:00,
2013-04-20 10:03:00,52.2,30.8,30.22,WNW,292,0.0,1.6,44,0.00,,,0.00,WUHU21623XXSP,2013-04-20 17:03:00,
2013-04-20 10:13:00,52.9,31.4,30.21,West,270,0.0,0.0,44,0.00,,,0.00,WUHU21623XXSP,2013-04-20 17:13:00,
2013-04-20 10:18:00,53.4,31.9,30.21,West,270,0.0,0.0,44,0.00,,,0.00,WUHU21623XXSP,2013-04-20 17:18:00,
2013-04-20 10:24:00,54.1,32.2,30.21,SSW,202,0.0,0.0,44,0.00,,,0.00,WUHU21623XXSP,2013-04-20 17:24:00,
2013-04-20 10:29:00,54.3,32.2,30.21,NE,45,0.0,0.0,43,0.00,,,0.00,WUHU21623XXSP,2013-04-20 17:29:00,
2013-04-20 10:37:00,55.2,32.4,30.21,NNE,22,0.0,0.0,42,0.00,,,0.00,WUHU21623XXSP,2013-04-20 17:37:00,
2013-04-20 10:43:00,56.1,33.2,30.21,NE,45,0.0,0.0,42,0.00,,,0.00,WUHU21623XXSP,2013-04-20 17:43:00,
2013-04-20 10:56:00,57.6,34.0,30.21,SSE,157,5.6,5.6,41,0.00,,,0.00,WUHU21623XXSP,2013-04-20 17:56:00,
2013-04-20 11:03:00,57.9,34.9,30.20,West,270,0.0,5.6,42,0.00,,,0.00,WUHU21623XXSP,2013-04-20 18:03:00,
2013-04-20 11:11:00,58.8,35.1,30.20,NW,315,0.0,0.0,41,0.00,,,0.00,WUHU21623XXSP,2013-04-20 18:11:00,
2013-04-20 11:16:00,59.2,34.9,30.20,North,0,0.0,0.0,40,0.00,,,0.00,WUHU21623XXSP,2013-04-20 18:16:00,
2013-04-20 11:22:00,59.7,34.5,30.19,WNW,292,0.0,0.0,39,0.00,,,0.00,WUHU21623XXSP,2013-04-20 18:22:00,
2013-04-20 11:27:00,59.9,34.8,30.19,ESE,112,0.0,0.0,39,0.00,,,0.00,WUHU21623XXSP,2013-04-20 18:27:00,
2013-04-20 11:32:00,60.3,35.1,30.20,ESE,112,0.0,0.0,39,0.00,,,0.00,WUHU21623XXSP,2013-04-20 18:32:00,
2013-04-20 11:39:00,61.0,35.0,30.20,SSW,202,0.0,0.0,38,0.00,,,0.00,WUHU21623XXSP,2013-04-20 18:39:00,
2013-04-20 11:45:00,61.3,35.4,30.19,NE,45,0.0,0.0,37,0.00,,,0.00,WUHU21623XXSP,2013-04-20 18:45:00,
2013-04-20 11:50:00,61.5,34.6,30.19,ENE,67,0.0,0.0,37,0.00,,,0.00,WUHU21623XXSP,2013-04-20 18:50:00,
2013-04-20 11:58:00,62.1,34.6,30.19,SSE,157,0.0,0.0,36,0.00,,,0.00,WUHU21623XXSP,2013-04-20 18:58:00,
2013-04-20 12:07:00,62.6,34.3,30.19,ESE,112,0.0,0.0,35,0.00,,,0.00,WUHU21623XXSP,2013-04-20 19:07:00,
2013-04-20 12:12:00,63.1,34.8,30.18,SE,135,0.0,0.0,34,0.00,,,0.00,WUHU21623XXSP,2013-04-20 19:12:00,
2013-04-20 12:17:00,63.5,34.4,30.18,SSW,202,0.7,0.7,34,0.00,,,0.00,WUHU21623XXSP,2013-04-20 19:17:00,
2013-04-20 12:22:00,63.7,33.9,30.18,NE,45,0.0,0.7,33,0.00,,,0.00,WUHU21623XXSP,2013-04-20 19:22:00,
2013-04-20 12:28:00,64.2,33.5,30.17,WNW,292,0.0,0.0,31,0.00,,,0.00,WUHU21623XXSP,2013-04-20 19:28:00,
2013-04-20 12:37:00,64.6,33.2,30.17,SE,135,0.9,0.9,31,0.00,,,0.00,WUHU21623XXSP,2013-04-20 19:37:00,
2013-04-20 12:42:00,64.9,33.2,30.17,South,180,2.7,2.7,31,0.00,,,0.00,WUHU21623XXSP,2013-04-20 19:42:00,
2013-04-20 12:47:00,65.1,33.7,30.17,SSW,202,0.0,2.7,31,0.00,,,0.00,WUHU21623XXSP,2013-04-20 19:47:00,
2013-04-20 12:52:00,65.3,33.9,30.17,SE,135,0.0,0.0,31,0.00,,,0.00,WUHU21623XXSP,2013-04-20 19:52:00,
2013-04-20 12:57:00,65.3,33.9,30.16,NW,315,0.0,0.0,31,0.00,,,0.00,WUHU21623XXSP,2013-04-20 19:57:00,
2013-04-20 13:04:00,65.5,33.3,30.16,North,0,0.0,0.0,30,0.00,,,0.00,WUHU21623XXSP,2013-04-20 20:04:00,
2013-04-20 13:09:00,66.0,33.8,30.16,NNE,22,5.4,5.4,30,0.00,,,0.00,WUHU21623XXSP,2013-04-20 20:09:00,
2013-04-20 13:15:00,66.4,31.1,30.16,NNW,337,0.0,5.4,27,0.00,,,0.00,WUHU21623XXSP,2013-04-20 20:15:00,
2013-04-20 13:20:00,66.7,31.4,30.16,NNE,22,0.0,0.0,27,0.00,,,0.00,WUHU21623XXSP,2013-04-20 20:20:00,
2013-04-20 13:25:00,67.1,30.7,30.15,NNE,22,1.3,1.3,26,0.00,,,0.00,WUHU21623XXSP,2013-04-20 20:25:00,
2013-04-20 13:32:00,68.4,30.8,30.15,WNW,292,0.0,1.3,25,0.00,,,0.00,WUHU21623XXSP,2013-04-20 20:32:00,
2013-04-20 13:37:00,68.9,30.1,30.15,NW,315,2.7,2.7,24,0.00,,,0.00,WUHU21623XXSP,2013-04-20 20:37:00,
2013-04-20 13:42:00,69.1,29.4,30.15,NW,315,0.0,2.7,23,0.00,,,0.00,WUHU21623XXSP,2013-04-20 20:42:00,
2013-04-20 13:47:00,70.0,30.0,30.14,WNW,292,0.0,0.0,24,0.00,,,0.00,WUHU21623XXSP,2013-04-20 20:47:00,
2013-04-20 13:58:00,70.2,30.3,30.15,WNW,292,4.3,4.3,23,0.00,,,0.00,WUHU21623XXSP,2013-04-20 20:58:00,
2013-04-20 14:03:00,70.2,30.3,30.15,WNW,292,3.1,4.3,23,0.00,,,0.00,WUHU21623XXSP,2013-04-20 21:03:00,
2013-04-20 14:13:00,70.2,30.3,30.14,WSW,247,0.0,0.0,23,0.00,,,0.00,WUHU21623XXSP,2013-04-20 21:13:00,
2013-04-20 14:22:00,70.2,30.3,30.14,NW,315,4.3,4.3,22,0.00,,,0.00,WUHU21623XXSP,2013-04-20 21:22:00,
2013-04-20 14:27:00,70.2,29.3,30.14,WNW,292,0.0,4.3,22,0.00,,,0.00,WUHU21623XXSP,2013-04-20 21:27:00,
2013-04-20 14:37:00,70.2,28.3,30.14,ENE,67,0.0,0.0,21,0.00,,,0.00,WUHU21623XXSP,2013-04-20 21:37:00,
2013-04-20 14:42:00,70.2,28.3,30.13,ENE,67,0.0,0.0,21,0.00,,,0.00,WUHU21623XXSP,2013-04-20 21:42:00,
2013-04-20 14:49:00,70.2,25.6,30.14,NNW,337,6.7,6.7,19,0.00,,,0.00,WUHU21623XXSP,2013-04-20 21:49:00,
2013-04-20 14:54:00,70.2,28.3,30.13,NNW,337,6.7,6.7,21,0.00,,,0.00,WUHU21623XXSP,2013-04-20 21:54:00,
2013-04-20 15:00:00,70.3,28.4,30.13,NW,315,0.0,6.7,21,0.00,,,0.00,WUHU21623XXSP,2013-04-20 22:00:00,
2013-04-20 15:07:00,70.7,27.7,30.13,North,0,0.0,0.0,20,0.00,,,0.00,WUHU21623XXSP,2013-04-20 22:07:00,
2013-04-20 15:12:00,70.9,26.2,30.12,NNE,22,3.4,3.4,20,0.00,,,0.00,WUHU21623XXSP,2013-04-20 22:12:00,
2013-04-20 15:17:00,71.2,29.0,30.12,NNW,337,4.3,4.3,20,0.00,,,0.00,WUHU21623XXSP,2013-04-20 22:17:00,
2013-04-20 15:21:00,71.2,29.1,30.12,West,270,0.0,4.3,21,0.00,,,0.00,WUHU21623XXSP,2013-04-20 22:21:00,
2013-04-20 15:27:00,71.4,28.3,30.12,WNW,292,6.7,6.7,20,0.00,,,0.00,WUHU21623XXSP,2013-04-20 22:27:00,
2013-04-20 15:34:00,71.4,26.6,30.12,WNW,292,0.0,6.7,19,0.00,,,0.00,WUHU21623XXSP,2013-04-20 22:34:00,
2013-04-20 15:41:00,71.4,26.6,30.11,WNW,292,4.0,4.0,19,0.00,,,0.00,WUHU21623XXSP,2013-04-20 22:41:00,
2013-04-20 15:51:00,71.2,26.5,30.11,WNW,292,5.4,5.4,19,0.00,,,0.00,WUHU21623XXSP,2013-04-20 22:51:00,
2013-04-20 15:56:00,71.1,26.3,30.10,North,0,1.6,5.4,19,0.00,,,0.00,WUHU21623XXSP,2013-04-20 22:56:00,
2013-04-20 16:04:00,70.9,27.8,30.10,WSW,247,0.0,1.6,20,0.00,,,0.00,WUHU21623XXSP,2013-04-20 23:04:00,
2013-04-20 16:09:00,70.9,26.2,30.10,WNW,292,4.5,4.5,19,0.00,,,0.00,WUHU21623XXSP,2013-04-20 23:09:00,
2013-04-20 16:14:00,70.7,26.1,30.10,WNW,292,8.3,8.3,19,0.00,,,0.00,WUHU21623XXSP,2013-04-20 23:14:00,
2013-04-20 16:19:00,70.7,26.1,30.10,WNW,292,0.0,8.3,19,0.00,,,0.00,WUHU21623XXSP,2013-04-20 23:19:00,
2013-04-20 16:24:00,70.5,26.1,30.10,WNW,292,0.0,0.0,19,0.00,,,0.00,WUHU21623XXSP,2013-04-20 23:24:00,
2013-04-20 16:36:00,70.5,25.9,30.09,West,270,0.0,0.0,19,0.00,,,0.00,WUHU21623XXSP,2013-04-20 23:36:00,
2013-04-20 16:43:00,70.3,25.8,30.10,NNW,337,0.0,0.0,19,0.00,,,0.00,WUHU21623XXSP,2013-04-20 23:43:00,
2013-04-20 16:48:00,70.3,25.8,30.09,NNW,337,0.0,0.0,19,0.00,,,0.00,WUHU21623XXSP,2013-04-20 23:48:00,
2013-04-20 16:53:00,70.3,25.8,30.09,WNW,292,3.4,3.4,19,0.00,,,0.00,WUHU21623XXSP,2013-04-20 23:53:00,
2013-04-20 16:58:00,70.2,25.6,30.09,NNW,337,5.4,5.4,19,0.00,,,0.00,WUHU21623XXSP,2013-04-20 23:58:00,
2013-04-20 17:03:00,70.0,25.5,30.09,West,270,1.1,5.4,19,0.00,,,0.00,WUHU21623XXSP,2013-04-21 00:03:00,
2013-04-20 17:15:00,69.6,25.2,30.09,NW,315,3.6,3.6,19,0.00,,,0.00,WUHU21623XXSP,2013-04-21 00:15:00,
2013-04-20 17:20:00,69.6,25.2,30.09,WNW,292,0.0,3.6,19,0.00,,,0.00,WUHU21623XXSP,2013-04-21 00:20:00,
2013-04-20 17:28:00,69.4,27.7,30.08,NW,315,7.8,7.8,21,0.00,,,0.00,WUHU21623XXSP,2013-04-21 00:28:00,
2013-04-20 17:33:00,69.3,27.5,30.08,North,0,0.0,7.8,21,0.00,,,0.00,WUHU21623XXSP,2013-04-21 00:33:00,
2013-04-20 17:39:00,69.1,26.4,30.08,North,0,6.3,6.3,20,0.00,,,0.00,WUHU21623XXSP,2013-04-21 00:39:00,
2013-04-20 17:49:00,68.7,26.1,30.09,WNW,292,11.6,11.6,20,0.00,,,0.00,WUHU21623XXSP,2013-04-21 00:49:00,
2013-04-20 17:54:00,68.7,26.1,30.08,North,0,6.0,11.6,20,0.00,,,0.00,WUHU21623XXSP,2013-04-21 00:54:00,
2013-04-20 17:59:00,68.5,26.0,30.08,WNW,292,4.7,6.0,20,0.00,,,0.00,WUHU21623XXSP,2013-04-21 00:59:00,
2013-04-20 18:06:00,68.2,25.7,30.08,West,270,6.0,6.0,20,0.00,,,0.00,WUHU21623XXSP,2013-04-21 01:06:00,
2013-04-20 18:19:00,67.8,26.3,30.08,WNW,292,2.2,2.2,21,0.00,,,0.00,WUHU21623XXSP,2013-04-21 01:19:00,
2013-04-20 18:24:00,67.8,27.3,30.08,North,0,6.0,6.0,22,0.00,,,0.00,WUHU21623XXSP,2013-04-21 01:24:00,
2013-04-20 18:30:00,67.8,27.3,30.09,WNW,292,8.1,8.1,22,0.00,,,0.00,WUHU21623XXSP,2013-04-21 01:30:00,
2013-04-20 18:41:00,67.5,27.0,30.09,WNW,292,6.3,6.3,22,0.00,,,0.00,WUHU21623XXSP,2013-04-21 01:41:00,
2013-04-20 18:46:00,67.3,26.9,30.09,NW,315,4.9,6.3,22,0.00,,,0.00,WUHU21623XXSP,2013-04-21 01:46:00,
2013-04-20 18:51:00,67.1,26.7,30.09,WNW,292,7.8,7.8,22,0.00,,,0.00,WUHU21623XXSP,2013-04-21 01:51:00,
2013-04-20 18:56:00,66.7,26.4,30.09,North,0,9.8,9.8,22,0.00,,,0.00,WUHU21623XXSP,2013-04-21 01:56:00,
2013-04-20 19:01:00,66.6,26.2,30.09,North,0,4.5,9.8,22,0.00,,,0.00,WUHU21623XXSP,2013-04-21 02:01:00,
2013-04-20 19:06:00,66.2,25.9,30.09,NW,315,8.1,8.1,22,0.00,,,0.00,WUHU21623XXSP,2013-04-21 02:06:00,
2013-04-20 19:11:00,66.0,25.9,30.09,NW,315,0.0,8.1,22,0.00,,,0.00,WUHU21623XXSP,2013-04-21 02:11:00,
2013-04-20 19:16:00,66.0,25.8,30.09,NW,315,5.8,5.8,22,0.00,,,0.00,WUHU21623XXSP,2013-04-21 02:16:00,
2013-04-20 19:21:00,65.5,25.6,30.10,WNW,292,7.2,7.2,22,0.00,,,0.00,WUHU21623XXSP,2013-04-21 02:21:00,
2013-04-20 19:26:00,65.5,25.3,30.10,WNW,292,4.9,7.2,22,0.00,,,0.00,WUHU21623XXSP,2013-04-21 02:26:00,
2013-04-20 19:31:00,64.9,25.9,30.10,North,0,2.0,4.9,23,0.00,,,0.00,WUHU21623XXSP,2013-04-21 02:31:00,
2013-04-20 19:38:00,64.2,24.3,30.10,North,0,4.5,4.5,22,0.00,,,0.00,WUHU21623XXSP,2013-04-21 02:38:00,
2013-04-20 19:43:00,63.7,22.9,30.10,WNW,292,6.5,6.5,21,0.00,,,0.00,WUHU21623XXSP,2013-04-21 02:43:00,
2013-04-20 19:48:00,63.7,24.8,30.11,WNW,292,5.6,6.5,23,0.00,,,0.00,WUHU21623XXSP,2013-04-21 02:48:00,
2013-04-20 19:53:00,63.3,24.5,30.11,WNW,292,8.3,8.3,23,0.00,,,0.00,WUHU21623XXSP,2013-04-21 02:53:00,
2013-04-20 19:59:00,62.8,25.1,30.11,NW,315,5.6,8.3,24,0.00,,,0.00,WUHU21623XXSP,2013-04-21 02:59:00,
2013-04-20 20:04:00,61.5,24.2,30.11,NNW,337,3.1,5.6,24,0.00,,,0.00,WUHU21623XXSP,2013-04-21 03:04:00,
2013-04-20 20:11:00,61.0,24.5,30.11,WNW,292,3.1,3.1,25,0.00,,,0.00,WUHU21623XXSP,2013-04-21 03:11:00,
2013-04-20 20:19:00,60.3,23.9,30.12,NW,315,1.3,3.1,25,0.00,,,0.00,WUHU21623XXSP,2013-04-21 03:19:00,
2013-04-20 20:24:00,59.7,23.6,30.12,NNW,337,4.7,4.7,25,0.00,,,0.00,WUHU21623XXSP,2013-04-21 03:24:00,
2013-04-20 20:29:00,59.5,23.3,30.12,NW,315,0.0,4.7,25,0.00,,,0.00,WUHU21623XXSP,2013-04-21 03:29:00,
2013-04-20 20:34:00,59.2,23.0,30.12,WNW,292,5.8,5.8,25,0.00,,,0.00,WUHU21623XXSP,2013-04-21 03:34:00,
2013-04-20 20:39:00,58.8,22.7,30.13,NW,315,7.6,7.6,25,0.00,,,0.00,WUHU21623XXSP,2013-04-21 03:39:00,
2013-04-20 20:44:00,58.8,22.7,30.13,WNW,292,6.3,7.6,25,0.00,,,0.00,WUHU21623XXSP,2013-04-21 03:44:00,
2013-04-20 20:53:00,58.1,22.0,30.14,NNW,337,7.4,7.4,25,0.00,,,0.00,WUHU21623XXSP,2013-04-21 03:53:00,
2013-04-20 21:06:00,57.9,21.9,30.14,NW,315,2.9,2.9,25,0.00,,,0.00,WUHU21623XXSP,2013-04-21 04:06:00,
2013-04-20 21:07:00,57.9,21.9,30.14,NW,315,2.9,2.9,25,0.00,,,0.00,WUHU21623XXSP,2013-04-21 04:07:00,
2013-04-20 21:12:00,57.9,21.9,30.14,NNW,337,3.1,3.1,25,0.00,,,0.00,WUHU21623XXSP,2013-04-21 04:12:00,
2013-04-20 21:17:00,57.6,21.6,30.14,NNW,337,5.6,5.6,25,0.00,,,0.00,WUHU21623XXSP,2013-04-21 04:17:00,
2013-04-20 21:22:00,57.4,21.4,30.15,NNE,22,0.0,5.6,25,0.00,,,0.00,WUHU21623XXSP,2013-04-21 04:22:00,
2013-04-20 21:38:00,56.8,21.9,30.15,WNW,292,0.0,0.0,26,0.00,,,0.00,WUHU21623XXSP,2013-04-21 04:38:00,
2013-04-20 21:43:00,56.7,21.8,30.15,NNE,22,4.0,4.0,26,0.00,,,0.00,WUHU21623XXSP,2013-04-21 04:43:00,
2013-04-20 21:48:00,56.5,21.6,30.15,NNW,337,3.1,4.0,26,0.00,,,0.00,WUHU21623XXSP,2013-04-21 04:48:00,
2013-04-20 21:53:00,56.5,21.6,30.16,WNW,292,1.6,3.1,26,0.00,,,0.00,WUHU21623XXSP,2013-04-21 04:53:00,
2013-04-20 21:58:00,56.3,21.5,30.15,NW,315,2.5,2.5,26,0.00,,,0.00,WUHU21623XXSP,2013-04-21 04:58:00,
2013-04-20 22:06:00,55.9,21.1,30.16,North,0,2.5,2.5,26,0.00,,,0.00,WUHU21623XXSP,2013-04-21 05:06:00,
2013-04-20 22:16:00,55.8,21.0,30.16,NW,315,3.6,3.6,26,0.00,,,0.00,WUHU21623XXSP,2013-04-21 05:16:00,
2013-04-20 22:21:00,55.8,21.0,30.16,NW,315,1.1,3.6,26,0.00,,,0.00,WUHU21623XXSP,2013-04-21 05:21:00,
2013-04-20 22:29:00,55.4,20.7,30.16,WNW,292,0.0,1.1,26,0.00,,,0.00,WUHU21623XXSP,2013-04-21 05:29:00,
2013-04-20 22:36:00,55.2,20.5,30.16,NW,315,2.7,2.7,26,0.00,,,0.00,WUHU21623XXSP,2013-04-21 05:36:00,
2013-04-20 22:44:00,54.9,20.2,30.16,WNW,292,0.0,2.7,26,0.00,,,0.00,WUHU21623XXSP,2013-04-21 05:44:00,
2013-04-20 22:57:00,54.3,19.8,30.16,WNW,292,0.0,0.0,26,0.00,,,0.00,WUHU21623XXSP,2013-04-21 05:57:00,
2013-04-20 23:02:00,54.1,19.6,30.16,WNW,292,0.0,0.0,26,0.00,,,0.00,WUHU21623XXSP,2013-04-21 06:02:00,
2013-04-20 23:07:00,53.8,19.3,30.16,WNW,292,0.0,0.0,26,0.00,,,0.00,WUHU21623XXSP,2013-04-21 06:07:00,
2013-04-20 23:12:00,53.4,20.0,30.16,WNW,292,0.0,0.0,27,0.00,,,0.00,WUHU21623XXSP,2013-04-21 06:12:00,
2013-04-20 23:21:00,52.5,19.2,30.15,WNW,292,0.0,0.0,27,0.00,,,0.00,WUHU21623XXSP,2013-04-21 06:21:00,
2013-04-20 23:26:00,52.3,20.0,30.15,WNW,292,0.0,0.0,28,0.00,,,0.00,WUHU21623XXSP,2013-04-21 06:26:00,
2013-04-20 23:38:00,50.7,19.8,30.16,WNW,292,0.0,0.0,29,0.00,,,0.00,WUHU21623XXSP,2013-04-21 06:38:00,
2013-04-20 23:57:00,49.3,19.2,30.16,South,180,0.0,0.0,30,0.00,,,0.00,WUHU21623XXSP,2013-04-21 06:57:00,